Погода в Нагаоке

Япония     35°02′38″N   138°56′40″E
темп.,
°C
ветер,
м/с
пор.,
м/с
влажн.,
%
обл.,
%
осадки,
мм/ч
давл.,
гПа
погр.,
м
23 января, вс
вс2300:00+2всв118719 0.0 102480
03:00+2в228458 0.0 1023106
06:00+2всв118088 0.0 102366
09:00+5вюв1268100 0.0 1022379
12:00+8ссв0350100 0.0 1020738
15:00+7в1153100 0.0 1018440
18:00+4вюв1170100 0.0 1018117
21:00+4зюз1184100 0.9 1018114
24 января, пн
пн2400:00+4з1193100 1.0 1015115
03:00+4ссв2295100 1.6 1013127
06:00+4всв3477100 0.0 1013210
09:00+5в4866100 0.0 1013602
12:00+8всв68470 0.0 1013886
15:00+8вюв23481 0.0 1013671
18:00+5всв235613 0.0 1016147
21:00+5всв225391 0.0 1018162
25 января, вт
вт2500:00+4всв246199 0.0 1019272
03:00+4в2273100 0.1 1020287
06:00+4в1179100 0.0 1020207
09:00+5в117697 0.0 1021456
12:00+6в128099 0.1 1019739
15:00+4вюв1193100 1.1 1019171
18:00+4всв229698 0.3 1019198
21:00+5св239482 0.3 1020284
26 января, ср
ср2600:00+4всв239676 0.1 1018220
03:00+4всв229574 0.1 1017240
06:00+4в229170 0.0 1017215
09:00+5вюв228357 0.0 1017408
12:00+9в126535 0.0 1014712
15:00+9юв13560 0.0 1012628
18:00+4в11820 0.0 1012101
21:00+4юв11820 0.0 101348
27 января, чт
чт2700:00+3вюв11822 0.0 101351
03:00+4в22795 0.0 1014104
06:00+2вюв23786 0.0 1016110
09:00+5юв236010 0.0 1017652
12:00+8ююв125465 0.0 10151152
15:00+7вюв226195 0.0 1015867
18:00+5юв347575 0.0 1018361
21:00+5в3477100 0.1 1018433